St. Augustine, FL

3:25 AM EDT on April 28, 2017 (GMT -0400)
Saint Augustine

Weather History for KSGJ - April, 2014

Change the Weather History Date:

Thursday, April 17, 2014

  Actual Average Record
Temperature  
Mean Temperature 66 °F -  
Max Temperature 71 °F 74 °F 87 °F (2006)
Min Temperature 62 °F 56 °F 44 °F (1983)
Cooling Degree Days 2    
Growing Degree Days 16 (Base 50)    
Moisture  
Dew Point 62 °F    
Average Humidity 84    
Maximum Humidity 93    
Minimum Humidity 75    
Precipitation  
Precipitation 0.00 in - - ()
Sea Level Pressure  
Sea Level Pressure 30.24 in    
Wind  
Wind Speed 16 mph (NNE)    
Max Wind Speed 23 mph    
Max Gust Speed 30 mph    
Visibility 8 miles    
Events      
Averages and records for this station are not official NWS values.
T = Trace of Precipitation, MM = Missing Value Source: NWS Daily Summary

Daily Weather History Graph

Daily Weather History Graph

Search for Another Location

Airport or City:

Trip Planner

Search our weather history database for the weather conditions in past years. The results will help you decide how hot, cold, wet, or windy it might be!

Date:

Astronomy

Apr. 17, 2014 Rise Set
Actual Time 6:56 AM EDT 7:53 PM EDT
Civil Twilight 6:31 AM EDT 8:18 PM EDT
Nautical Twilight 6:02 AM EDT 8:47 PM EDT
Astronomical Twilight 5:32 AM EDT 9:17 PM EDT
Moon 10:29 PM EDT (4/17) 8:34 AM EDT (4/17)
Length of Visible Light 13h 46m
Length of Day
12h 57m
Waning Gibbous, 94% of the Moon is Illuminated
Apr 17
Waning Gibbous
Apr 22
Last Quarter
Apr 29
New
May 6
First Quarter
May 14
Full

Hourly Weather History & Observations

Time (EDT) Temp. Dew Point Humidity Pressure Visibility Wind Dir Wind Speed Gust Speed Precip Events Conditions
12:12 AM 62.6 °F 57.2 °F 82% 30.23 in 10.0 mi NE 16.1 mph - N/A   Scattered Clouds
12:47 AM 62.6 °F 57.2 °F 82% 30.23 in 10.0 mi NE 18.4 mph 26.5 mph N/A   Mostly Cloudy
12:51 AM 62.6 °F 57.2 °F 82% 30.22 in 10.0 mi NNE 17.3 mph 26.5 mph N/A   Overcast
12:58 AM 63.0 °F 57.9 °F 84% 30.22 in 10.0 mi NNE 19.6 mph 25.3 mph N/A   Overcast
1:42 AM 62.6 °F 57.2 °F 82% 30.21 in 10.0 mi NNE 18.4 mph 25.3 mph N/A   Mostly Cloudy
1:58 AM 63.0 °F 57.9 °F 84% 30.20 in 10.0 mi NNE 16.1 mph 25.3 mph N/A   Overcast
2:25 AM 62.6 °F 57.2 °F 82% 30.19 in 10.0 mi NNE 17.3 mph 23.0 mph N/A   Overcast
2:58 AM 63.0 °F 57.9 °F 84% 30.19 in 10.0 mi North 11.5 mph - N/A   Overcast
3:58 AM 64.0 °F 60.1 °F 87% 30.18 in 10.0 mi North 12.7 mph - N/A   Overcast
4:58 AM 64.0 °F 61.0 °F 90% 30.18 in 9.0 mi NW 8.1 mph - N/A   Overcast
5:58 AM 63.0 °F 61.0 °F 93% 30.19 in 9.0 mi NNW 10.4 mph - N/A   Clear
6:58 AM 64.9 °F 62.1 °F 90% 30.21 in 7.0 mi NNE 16.1 mph - N/A   Mostly Cloudy
7:58 AM 66.0 °F 63.0 °F 90% 30.24 in 7.0 mi NNE 15.0 mph - N/A   Mostly Cloudy
8:56 AM 66.2 °F 62.6 °F 88% 30.25 in 5.0 mi NE 19.6 mph 23.0 mph N/A   Overcast
8:58 AM 66.9 °F 63.0 °F 87% 30.26 in 5.0 mi NE 19.6 mph 23.0 mph N/A   Overcast
9:02 AM 66.2 °F 62.6 °F 88% 30.26 in 7.0 mi NE 17.3 mph - N/A   Overcast
9:08 AM 66.2 °F 62.6 °F 88% 30.26 in 5.0 mi NNE 13.8 mph 25.3 mph N/A   Overcast
9:58 AM 68.0 °F 62.1 °F 81% 30.27 in 4.0 mi NE 19.6 mph 24.2 mph N/A   Haze
10:02 AM 68.0 °F 62.6 °F 83% 30.27 in 8.0 mi NNE 19.6 mph 24.2 mph N/A   Mostly Cloudy
10:12 AM 68.0 °F 62.6 °F 83% 30.28 in 4.0 mi NNE 19.6 mph 26.5 mph N/A   Haze
10:58 AM 70.0 °F 63.0 °F 78% 30.31 in 4.0 mi NNE 17.3 mph - N/A   Haze
11:58 AM 71.1 °F 63.0 °F 75% 30.31 in 9.0 mi NNE 16.1 mph 23.0 mph N/A   Mostly Cloudy
12:36 PM 71.6 °F 64.4 °F 78% 30.31 in 10.0 mi NNE 16.1 mph - N/A   Scattered Clouds
12:58 PM 70.0 °F 64.0 °F 81% 30.30 in 9.0 mi NNE 18.4 mph 23.0 mph N/A   Partly Cloudy
1:58 PM 71.1 °F 63.0 °F 75% 30.29 in 5.0 mi NNE 19.6 mph - N/A   Haze
2:58 PM 70.0 °F 63.0 °F 78% 30.28 in 5.0 mi NNE 18.4 mph 26.5 mph N/A   Haze
3:58 PM 71.1 °F 63.0 °F 75% 30.25 in 5.0 mi NNE 23.0 mph 28.8 mph N/A   Haze
4:58 PM 70.0 °F 64.0 °F 81% 30.23 in 4.0 mi NNE 20.7 mph 29.9 mph N/A   Haze
5:54 PM 68.0 °F 62.6 °F 83% 30.25 in 4.0 mi NNE 19.6 mph 24.2 mph N/A   Haze
5:58 PM 68.0 °F 63.0 °F 84% 30.25 in 4.0 mi NNE 19.6 mph 25.3 mph N/A   Haze
6:58 PM 66.0 °F 62.1 °F 87% 30.23 in 4.0 mi NNE 12.7 mph - N/A   Scattered Clouds
7:58 PM 66.0 °F 63.0 °F 90% 30.24 in 10.0 mi NNE 12.7 mph - N/A   Clear
8:58 PM 66.0 °F 63.0 °F 90% 30.24 in 10.0 mi NNE 11.5 mph - N/A   Clear
9:58 PM 66.9 °F 63.0 °F 87% 30.25 in 10.0 mi NE 9.2 mph - N/A   Clear
10:58 PM 68.0 °F 63.0 °F 84% 30.24 in 10.0 mi NE 10.4 mph - N/A   Clear
11:58 PM 68.0 °F 63.0 °F 84% 30.22 in 10.0 mi NE 10.4 mph - N/A   Partly Cloudy